sat.trackr.live / text

‹ back to catalog

STARLINK-31756

NORAD 61517 · 2024-183J

PAYLOAD ACTIVE UNKNOWN

§ Identity

Operator
Country
US
Launch date
2024-10-15
Launch site
AFETR
Launch vehicle
Mass (kg)
RCS (m²)

Purposes: comms

External: N2YO · Heavens-Above · Gunter

§ Orbital elements

Epoch: 2026-05-25T03:39:36.114048Z

Period
94.11 min
Inclination
53.1590°
Eccentricity
0.0001051
Mean motion
15.30187242 rev/d
Perigee alt
474.5 km
Apogee alt
476.0 km
Semi-major
6,853.4 km
B*
-2.6990e-5
RAAN
147.6296°
Arg perigee
78.4953°
Mean anomaly
281.6166°
Rev number
9,135

§ Raw data

STARLINK-317561 61517U 24183J   26145.15250132 -.00001158  00000+0 -26990-4 0  99912 61517  53.1590 147.6296 0001051  78.4953 281.6166 15.30187242 91354

JSON: /api/v1/satellites/61517 · /tle

For live sub-satellite position, see the globe view (requires WebGL).

§ Visibility from observer

Set your observer location to see the next 7 days of passes ≥ 10°. The values pass through the URL so the page stays shareable.

No JS? Fill the form by hand. The geolocation button needs JavaScript.